Torna al catalogo

STARLINK-32002

AttivoComunicazioniVLEO
NORAD 60200·PAYLOAD·🇺🇸 United States

Lanciato Jul 3, 2024 da Cape Canaveral Space Force Station

Loading…

Prossimi Passaggi (prossime 24 ore)

TLE

AggiornatoSource: CelesTrak SupGP

Epoca: Sep 14, 2026, 15:27 UTC

1 60200C 24124T   26257.64423611  .00062781  00000+0  20194-2 0  2578
2 60200  53.1567 163.3883 0001148  92.0488 341.9789 15.31662118    10

Traccia STARLINK-32002 in tempo reale con AllMySat

Download on the App Store